Flag for Greece Weather past 2 weeks in Heraklion, Crete, Greece

61 °F

Light rain. Passing clouds.

Feels Like: 61 °F
Forecast: 62 / 69 °F
Wind: 7 mph from South

Location: Heraklion Airport

Current Time: Nov 26, 2015 at 8:40:16 PM

Latest Report: Nov 26, 2015 at 7:50 PM

Visibility: N/A

Pressure: 29.68 "Hg

Humidity: 88%

Dew point: 57 °F

Location of HeraklionLocation

Historic Weather in Heraklion — Graph


Heraklion temperature yesterday

Maximum temperature yesterday: 72 °F (at 12:50 PM)
Minimum temperature yesterday: 61 °F (at 3:50 AM)
Average temperature yesterday: 67 °F

Past Weeks' High & Low Weather Summary

High75 °F (Nov 21, 1:50 PM)100% (Nov 14, 6:50 AM)30.30 "Hg (Nov 14, 6:50 AM)
Low54 °F (Nov 20, 4:50 AM)44% (Nov 26, 1:20 PM)29.65 "Hg (Nov 26, 6:50 AM)
Average65 °F76%30.05 "Hg
* Reported Nov 11 7:20 PM — Nov 26 7:20 PM, Heraklion, Weather by CustomWeather, © 2015

Note: Actual official high and low records may vary slightly from our data, if they occured in-between our weather recording intervals... More about our weather records


Heraklion weather history for previous 24 hours

Time TempWeatherWind HumidityBarometerVisibility
7:20 PM
Thu, Nov 26
64 °FPassing clouds.8 mph68%29.68 "HgN/A
6:50 PM64 °FPassing clouds.13 mph68%29.68 "HgN/A
6:20 PM64 °FPassing clouds.13 mph68%29.68 "HgN/A
5:50 PM64 °FPassing clouds.15 mph68%29.68 "HgN/A
5:20 PM66 °FPassing clouds.16 mph64%29.68 "HgN/A
4:50 PM66 °FScattered clouds.15 mph64%29.68 "HgN/A
4:20 PM68 °FScattered clouds.13 mph56%29.68 "HgN/A
3:50 PM68 °FScattered clouds.15 mph56%29.68 "HgN/A
3:20 PM68 °FScattered clouds.15 mph56%29.68 "HgN/A
2:50 PM68 °FScattered clouds.14 mph56%29.68 "HgN/A
2:20 PM72 °FScattered clouds.17 mph47%29.68 "HgN/A
1:50 PM72 °FScattered clouds.16 mph47%29.68 "HgN/A
1:20 PM72 °FScattered clouds.17 mph44%29.68 "HgN/A
12:50 PM72 °FScattered clouds.16 mph50%29.68 "HgN/A
12:20 PM72 °FScattered clouds.14 mph53%29.68 "HgN/A
11:50 AM70 °FScattered clouds.13 mph57%29.68 "HgN/A
11:20 AM73 °FScattered clouds.8 mph53%29.71 "HgN/A
10:50 AM72 °FScattered clouds.8 mph53%29.71 "HgN/A
10:20 AM72 °FScattered clouds.7 mph57%29.71 "HgN/A
9:50 AM72 °FScattered clouds.5 mph57%29.68 "HgN/A
9:20 AM68 °FScattered clouds.7 mph60%29.68 "HgN/A
8:50 AM68 °FScattered clouds.12 mph60%29.68 "HgN/A
8:20 AM64 °FScattered clouds.8 mph68%29.68 "HgN/A
7:50 AM64 °FScattered clouds.14 mph68%29.68 "HgN/A
7:20 AM66 °FPassing clouds.13 mph56%29.65 "HgN/A
6:50 AM68 °FPassing clouds.20 mph49%29.65 "HgN/A
5:50 AM68 °FPassing clouds.23 mph49%29.68 "HgN/A
3:50 AM68 °FPassing clouds.17 mph49%29.68 "HgN/A
3:20 AM68 °FPassing clouds.14 mph49%29.71 "HgN/A
2:50 AM66 °FPassing clouds.12 mph64%29.71 "HgN/A
2:20 AM64 °FPassing clouds.12 mph73%29.71 "HgN/A
1:50 AM64 °FPassing clouds.7 mph73%29.71 "HgN/A
1:20 AM64 °FClear.6 mph78%29.71 "Hg10 mi
12:50 AM64 °FClear.6 mph78%29.71 "Hg10 mi
12:20 AM64 °FPassing clouds.9 mph78%29.71 "HgN/A
11:50 PM
Wed, Nov 25
64 °FPassing clouds.12 mph78%29.71 "HgN/A
11:20 PM66 °FPassing clouds.21 mph73%29.71 "HgN/A
10:50 PM66 °FPassing clouds.12 mph73%29.71 "HgN/A
10:20 PM68 °FPassing clouds.6 mph69%29.74 "HgN/A
9:50 PM68 °FPassing clouds.14 mph69%29.74 "HgN/A
9:20 PM66 °FPassing clouds.13 mph73%29.77 "HgN/A
8:50 PM66 °FPassing clouds.15 mph73%29.77 "HgN/A
8:20 PM66 °FPassing clouds.12 mph73%29.80 "HgN/A
Weather by CustomWeather, © 2015

See weather overviewHow to use our weather pages